This is the latest recevied weather packets stored in our database for station/object WB6ANP. If no packets are shown the sender has not sent any weather packets the latest 10 day(s).
| Time | Temp. | Humidity | Pressure | Rain* | Wind** | Luminosity | Snow |
|---|---|---|---|---|---|---|---|
| 1777661765 | 15.56° C | 58% | 1016 hPa | 0 mm | - | 181 W/m² | - |
| 1777661461 | 15.56° C | 57% | 1016 hPa | 0 mm | - | 211 W/m² | - |
| 1777661157 | 15.56° C | 57% | 1016.1 hPa | 0 mm | - | 192 W/m² | - |
| 1777660852 | 16.11° C | 56% | 1016.1 hPa | 0 mm | - | 209 W/m² | - |
| 1777660549 | 15.56° C | 56% | 1016 hPa | 0 mm | - | 258 W/m² | - |
| 1777660245 | 15.56° C | 61% | 1015.9 hPa | 0 mm | - | 284 W/m² | - |
| 1777659942 | 15.56° C | 62% | 1015.9 hPa | 0 mm | - | 279 W/m² | - |
| 1777659639 | 15.56° C | 62% | 1016 hPa | 0 mm | - | 263 W/m² | - |
| 1777659337 | 15.56° C | 63% | 1016 hPa | 0 mm | - | 254 W/m² | - |
| 1777659033 | 15.56° C | 63% | 1016.1 hPa | 0 mm | - | 275 W/m² | - |
| 1777658731 | 15.56° C | 62% | 1016.2 hPa | 0 mm | - | 281 W/m² | - |
| 1777658427 | 15.56° C | 63% | 1016.1 hPa | 0 mm | - | 262 W/m² | - |
| 1777658124 | 15.56° C | 67% | 1016.3 hPa | 0 mm | - | 250 W/m² | - |
| 1777657820 | 15.56° C | 66% | 1016.3 hPa | 0 mm | - | 219 W/m² | - |
| 1777657518 | 15.56° C | 66% | 1016.2 hPa | 0 mm | - | 214 W/m² | - |
| 1777657215 | 15.56° C | 66% | 1016.3 hPa | 0 mm | - | 218 W/m² | - |
| 1777656913 | 15.56° C | 65% | 1016.5 hPa | 0 mm | - | 245 W/m² | - |
| 1777656609 | 15.56° C | 67% | 1016.3 hPa | 0 mm | - | 252 W/m² | - |
| 1777656304 | 15.56° C | 68% | 1016.6 hPa | 0 mm | - | 247 W/m² | - |
| 1777656000 | 15.56° C | 67% | 1016.8 hPa | 0 mm | - | 245 W/m² | - |
| 1777655696 | 15.56° C | 67% | 1016.7 hPa | 0 mm | - | 302 W/m² | - |
| 1777655393 | 15.56° C | 66% | 1016.7 hPa | 0 mm | - | 293 W/m² | - |
| 1777655090 | 15.56° C | 71% | 1016.9 hPa | 0 mm | - | 300 W/m² | - |
| 1777654787 | 15.56° C | 69% | 1016.9 hPa | 0 mm | - | 335 W/m² | - |
| 1777654485 | 15.56° C | 70% | 1016.9 hPa | 0 mm | - | 312 W/m² | - |
* Rain latest hour (hover to see other rain measurements)
** Current wind speed in m/s (hover to see current wind gust speed)